www.pogodaiklimat.ru

Погода и климат >> Архив погоды >> Россия >> Свердловская область >> Бутка


ПОГОДА в Бутке

  • Прогноз погоды в Бутке
  • Монитор погоды в Бутке

АРХИВ ПОГОДЫ в Бутке

Время (UTC), дата Ветер
(напр.,м/с)
 
Видим.   Явления Облачность Т
(С)
Тd
(С)
f
(%)
Тe
(С)
Тes
(С)
Комфортность P
(гПа)
Po
(гПа)
Тmin
(С)
Tmax
(С)
R
(мм)
R24
(мм)
S
(см)
00 13.06 СЗ 5 н/о н/о 991.5
03 13.06 СЗ 5
{12}
50 км 8/8 600 м
[Sc]
+9.8 +4.0 67 +7 +7 1006.0 993.2 +8.9 0.5
06 13.06 СЗ 6
{12}
50 км 9/9 600 м
[Cb cap]
+10.8 +1.4 52 +8 +9 1007.6 994.9
09 13.06 СЗ 6-10
{11}
50 км 10/10 600 м
[Cb cap]
+10.3 +3.2 61 +7 +7 1009.4 996.7
12 13.06 СЗ 5
{11}
50 км 9/8 600 м
[Cb cap Ac trans]
+13.1 +0.8 43 +11 +12 1009.5 996.8
15 13.06 З 2
{10}
50 км в посл. час ливневой дождь 9/9 600 м
[Cb cap]
+8.2 +4.6 78 +6 +6 1010.6 997.7 +13.6
18 13.06 З 2 н/о н/о 998.5
21 13.06 СЗ 3 н/о н/о 999.1
00 14.06 З 4 н/о н/о 999.3
03 14.06 З 4 50 км ясно +8.8 +1.8 61 +6 +10 1011.4 998.5 +3.6
06 14.06 З 6
{12}
50 км 9/9 600 м
[Cb cap]
+13.1 +1.2 44 +11 +12 1009.5 996.8
09 14.06 З 5
{12}
50 км 9/9 600 м
[Cu med, cong]
+15.6 -8.8 18 +15 +15 1008.1 995.5
12 14.06 СЗ 2 50 км 10/10 600 м
[Cb cap]
+14.5 +2.3 44 +14 +14 1008.1 995.5
15 14.06 СВ 1 50 км 9/3 600 м
[Cb cap Ac trans]
+14.6 +4.8 52 +15 +16 1007.8 995.2 +17.9
18 14.06 СВ 2 н/о н/о 995.4
21 14.06 СВ 2 н/о н/о 995.4
00 15.06 СВ 1 н/о н/о 995.0
03 15.06 ЮВ 2 50 км 4/3 600 м
[Cu med, cong Ac cast Ci sp]
+12.8 +4.3 56 +12 +16 1007.6 994.9 +3.7
06 15.06 СЗ 2 50 км 8/6 600 м
[Cu med, cong Ac cast]
+16.4 +2.5 39 +17 +20 1007.1 994.6
09 15.06 СЗ 5 50 км 8/8 600 м
[Cu med, cong]
+16.9 -0.4 31 +16 +18 1006.8 994.3
12 15.06 З 3 50 км 6/6 1000 м
[Cu med, cong]
+1.8 +1.2 96 -3 -0 1006.4 994.0
15 15.06 СЗ 2 50 км 8/3 1000 м
[Cu hum Ci sp]
+16.8 +0.2 32 +17 +18 1006.4 993.9 +19.9
18 15.06 ЮЗ 1 н/о н/о 993.8
21 15.06 Ю 1 н/о н/о 992.9
00 16.06 Ю 2 н/о н/о 992.5
03 16.06 ЮЗ 3 50 км 10/0
[Ac trans Cc]
+12.9 +5.2 59 +12 +15 1003.9 991.4 +3.0
06 16.06 З 5
{11}
50 км 10/8 600 м
[Cb cap Ci sp]
+16.4 +4.6 45 +16 +17 1002.7 990.3
09 16.06 З 6-10
{13}
50 км в посл. час ливневой дождь 10/9 600 м
[Cb cap As op]
+13.6 +8.9 73 +11 +12 1003.1 990.5
12 16.06 З 3
{13}
50 км в посл. час ливневой дождь 10/5 600 м
[Cb cap Ac trans Cc]
+12.4 +9.9 85 +11 +12 1003.1 990.5
15 16.06 ЮЗ 1 50 км {ливн. осадки} 9/3 600 м
[Cu med, cong Ac trans Cc]
+11.6 +8.0 79 +11 +12 1004.0 991.3 4
18 16.06 СЗ 2 н/о н/о 992.0
21 16.06 штиль 0 н/о н/о 991.8
00 17.06 ЮЗ 1 н/о н/о 992.1
03 17.06 СЗ 3 50 км 1/0
[Ac cast]
+10.9 +6.4 74 +9 +13 1005.8 993.1 +5.8 0.3
06 17.06 СЗ 3 50 км 8/8 600 м
[Cu med, cong]
+13.5 +4.4 54 +13 +15 1005.8 993.1
09 17.06 С 2 50 км 6/6 600 м
[Cu med, cong]
+15.0 +2.8 44 +15 +21 1005.5 992.8
12 17.06 З 3 50 км 8/4 600 м
[Cu med, cong Ac cuf Cc]
+16.5 +2.6 39 +16 +19 1004.8 992.4
15 17.06 З 1 50 км 9/1 600 м
[Cu med, cong Ac trans Ci fib]
+15.1 +4.6 49 +16 +16 1004.8 992.3 +18.6
18 17.06 ЮЗ 2 н/о н/о 991.6
21 17.06 Ю 1 н/о н/о 990.6
00 18.06 ЮЗ 2 н/о н/о 990.5
03 18.06 СЗ 1 50 км 10/1 600 м
[Frnb Ac lent]
+10.6 +8.8 89 +10 +11 1004.2 991.5 +8.8 1
06 18.06 С 3 11 км слаб. ливневой дождь 10/10 600 м
[Cb cap]
+13.3 +9.6 78 +12 +12 1004.9 992.3
09 18.06 С 3 50 км {ливн. осадки} 9/9 600 м
[Cb cap]
+15.6 +6.4 54 +15 +16 1005.6 993.0
12 18.06 С 3
{11}
50 км {ливн. осадки} 8/8 600 м
[Cb cap]
+15.5 +4.4 48 +15 +16 1006.5 993.9
15 18.06 СЗ 1 50 км 6/4 600 м
[Sc Ac trans]
+14.4 +4.2 50 +15 +15 1007.3 994.7 +18.3 1
18 18.06 Ю 2 н/о н/о 995.7
21 18.06 Ю 2 н/о н/о 995.5
00 19.06 Ю 2 н/о н/о 995.9
03 19.06 З 2 50 км 8/8 600 м
[Sc]
+12.4 +6.5 67 +12 +13 1009.4 996.7 +3.4
06 19.06 З 4 50 км 8/0
[Ac trans]
+17.3 +7.9 54 +17 +22 1009.5 997.0
09 19.06 З 3 50 км 8/6 600 м
[Cu med, cong Ac lent]
+21.2 +4.7 34 +22 +24 комфорт 1009.1 996.7
12 19.06 З 5
{10}
50 км 4/3 600 м
[Cu hum Ac cast]
+22.5 +6.2 35 +23 +25 комфорт 1008.7 996.4
15 19.06 ЮЗ 2 50 км 10/6 600 м
[Sc Ac trans Ci sp]
+20.2 +7.9 45 +22 +22 комфорт 1008.7 996.5 +23.9
18 19.06 Ю 1 н/о н/о 996.8
21 19.06 Ю 2 н/о н/о 996.9

 

Местоположение метеостанции Бутка (Свердловская область, Россия): широта 56.72 долгота 63.77 высота над уровнем моря 106 м.

В архиве по умолчанию представлена погода в Бутке за последнюю неделю. Архивные данные за месяц целиком и за предыдущие месяцы, начиная с января 2011 года, Вы можете получить, выбрав интересующий диапазон дат из раскрывающегося списка и нажав кнопку "Ввод!".


*Определитесь, кто Вы:
робот инопланетянин человек

Внимание! Время в таблицах - всемирное. Для получения местного времени необходимо прибавить поправку, которая равна 5 ч.

Смотрите также архив погоды в соседних городах и на ближайших метеорологических станциях:

Погода в Шатрово (Курганская область, Россия) (58 км)
Погода в Камышлове (Свердловская область, Россия) (66 км)
Погода в Тугулыме (Свердловская область, Россия) (67 км)
Погода в Далматово (Курганская область, Россия) (72 км)
Погода в Шадринске (Курганская область, Россия) (73 км)
Погода в Исетском (Тюменская область, Россия) (99 км)
Погода в Тюмени (Тюменская область, Россия) (110 км)
Погода в Ирбите (Свердловская область, Россия) (111 км)
Погода в Каменск-Уральском (Свердловская область, Россия) (121 км)
Погода в Артемовском (Свердловская область, Россия) (133 км)

Пояснения к столбцам:

Ветер - указаны скорость ветра в м/с - средняя за 10 мин, порывы в срок и между сроками (в фигурных скобках) и направление, откуда дует ветер: С - северный, СВ - северо-восточный, В - восточный, ЮВ - юго-восточный, Ю - южный, ЮЗ - юго-западный, З - западный, СЗ - северо-западный.
Видимость - горизонтальная дальность видимости в метрах или километрах. При видимости от 1 до 10 км при отсутствии осадков обычно наблюдается дымка, при ухудшении видимости до 1 км и менее - туман. В сухую погоду видимость может ухудшаться дымом, пылью или мглою.
Явления - указаны атмосферные явления, наблюдавшиеся в срок или в последний час перед сроком; фигурными скобками обозначены явления, наблюдавшиеся между сроками (за 1-3 часа до срока); квадратными скобками обозначены град или гололедные отложения с указанием их диаметра в мм.
Облачность - указаны через наклонную черту общая и нижняя облачность в баллах и высота нижней границы облаков в метрах; квадратными скобками обозначены формы облаков: Ci - перистые, Cs - перисто-слоистые, Cc - перисто-кучевые, Ac - высококучевые, As - высокослоистые, Sc - слоисто-кучевые, Ns - слоисто-дождевые, Cu - кучевые, Cb - кучево-дождевые. Подробнее классификацию облаков см. в Атласе облаков (PDF).
T - Температура воздуха - температура, измеренная на высоте 2 м над землей.
Td - Температура точки росы - температура, при понижении до которой содержащийся в воздухе водяной пар достигнет насыщения.
f - Относительная влажность воздуха - влажноcть воздуха, измеренная на высоте 2 м над землей.
Te - Эффективная температура - температура, которую ощущает одетый по сезону человек в тени. Характеристика душности погоды. При расчете учитывается влияние влажности воздуха и скорости ветра на теплоощущения человека.
Tes - Эффективная температура на солнце - температура, которую ощущает человек, с поправкой на солнечный нагрев. Характеристика знойности погоды. Зависит от высоты солнца над горизонтом, облачности и скорости ветра. Ночью, в пасмурную погоду, а также при ветре 12 м/с и более поправка равна нулю.
P - Атмосферное давление - приведенное к уровню моря атмосферное давление.
Po - Атмосферное давление - измеренное на уровне метеостанции атмосферное давление.
Tmin - Минимальная температура - минимум температуры воздуха на высоте 2 м над землей.
Tmax - Максимальная температура - максимум температуры воздуха на высоте 2 м над землей.
R - Количество осадков - Количество выпавших осадков за период времени, мм. При наведении курсора мыши на число - период времени, за который выпало указанное количество осадков.
R24 - Количество осадков - Количество выпавших осадков за 24 часа, мм.
S - Снежный покров - Высота снежного покрова, см. При наведении курсора мыши на число - состояние снежного покрова и степень покрытия местности в баллах.